2023-121D (57629 NORAD) Tracking and Keplerian Element Data

This shows tracking and keplerian element data for the satellite.

Feedback or suggestion? Click here.




ElementValue
Catalog57629
Name2023-121D
Epoch Orbit189
Epoch Day239.15425873
Epoch Year2023
RAAN297.5859
Inclination45.0057
Eccentricity0.0007502
Argument of Perigee321.3814
Mean Anonmoly38.6505
Mean Motion14.58392535
Decay Rate1.014E-05
L11 57629U 23121D 23239.15425873 .00001014 00000+0 25008-3 0 9995
L22 57629 45.0057 297.5859 0007502 321.3814 38.6505 14.58392535 1893



Live tracking and technical data element details for 2023-121D (NORAD 57629). 2023-121D can be tracked NOW for your location showing map with azimuth and elevation plus other details from your city location.







IsCatalogInMostPopularTable: catalog: 57629, numindb: 6
Update: records affected: 1



GetName: 57629 2023-121D

Hit Count: updated at: Tue, 26 Sep 2023 12:46:10 GMT